TimePST,TemperatureF,Dew PointF,Humidity,Sea Level PressureIn,VisibilityMPH,Wind Direction,Wind SpeedMPH,Gust SpeedMPH,PrecipitationIn,Events,Conditions,WindDirDegrees,DateUTC
12:51 AM,62.1,44.1,52,29.97,10.0,South,3.5,-,N/A,,Clear,180,2013-12-18 08:51:00
1:51 AM,59.0,54.0,83,29.98,10.0,WNW,6.9,27.6,N/A,,Clear,300,2013-12-18 09:51:00
2:51 AM,57.9,51.1,78,29.96,10.0,North,-9999.0,-,N/A,,Clear,0,2013-12-18 10:51:00
3:51 AM,57.0,53.1,87,29.94,9.0,NW,4.6,-,N/A,,Clear,320,2013-12-18 11:51:00
4:51 AM,57.0,55.0,93,29.95,8.0,West,8.1,-,N/A,,Clear,280,2013-12-18 12:51:00
5:51 AM,57.0,55.0,93,29.96,7.0,Calm,Calm,-,N/A,,Clear,0,2013-12-18 13:51:00
6:23 AM,57.2,55.4,94,29.97,7.0,Variable,3.5,-,N/A,,Partly Cloudy,0,2013-12-18 14:23:00
6:51 AM,55.9,54.0,93,29.96,6.0,ENE,4.6,-,N/A,,Clear,60,2013-12-18 14:51:00
7:29 AM,57.2,55.4,94,29.97,6.0,Variable,4.6,17.3,N/A,,Partly Cloudy,0,2013-12-18 15:29:00
7:51 AM,57.0,55.0,93,29.98,5.0,WNW,9.2,-,N/A,,Scattered Clouds,300,2013-12-18 15:51:00
8:51 AM,57.9,55.0,90,29.96,7.0,Calm,Calm,-,N/A,,Clear,0,2013-12-18 16:51:00
9:51 AM,61.0,54.0,78,29.96,8.0,Calm,Calm,-,N/A,,Clear,0,2013-12-18 17:51:00
10:51 AM,59.0,54.0,83,29.97,9.0,WNW,9.2,-,N/A,,Clear,290,2013-12-18 18:51:00
11:51 AM,59.0,54.0,83,29.93,8.0,NW,6.9,-,N/A,,Clear,310,2013-12-18 19:51:00
12:51 PM,59.0,54.0,83,29.91,7.0,West,11.5,-,N/A,,Clear,270,2013-12-18 20:51:00
1:33 PM,60.8,53.6,77,29.90,5.0,WNW,15.0,-,N/A,,Haze,290,2013-12-18 21:33:00
1:51 PM,57.9,54.0,87,29.89,5.0,WNW,12.7,-,N/A,,Scattered Clouds,290,2013-12-18 21:51:00
2:31 PM,57.2,53.6,88,29.88,4.0,WNW,11.5,-,N/A,,Mostly Cloudy,290,2013-12-18 22:31:00
2:51 PM,57.0,53.1,87,29.88,4.0,West,11.5,-,N/A,,Mostly Cloudy,280,2013-12-18 22:51:00
3:51 PM,55.9,52.0,87,29.88,4.0,West,15.0,-,N/A,,Mostly Cloudy,280,2013-12-18 23:51:00
4:06 PM,55.4,51.8,88,29.87,5.0,WNW,13.8,-,N/A,,Partly Cloudy,290,2013-12-19 00:06:00
4:51 PM,54.0,52.0,93,29.87,4.0,WNW,6.9,-,N/A,,Clear,290,2013-12-19 00:51:00
5:51 PM,53.1,51.1,93,29.87,6.0,West,5.8,-,N/A,,Clear,280,2013-12-19 01:51:00
6:19 PM,53.6,51.8,94,29.87,6.0,West,6.9,-,N/A,,Mostly Cloudy,280,2013-12-19 02:19:00
6:51 PM,54.0,51.1,90,29.87,6.0,West,9.2,-,N/A,,Overcast,280,2013-12-19 02:51:00
7:51 PM,54.0,51.1,90,29.87,7.0,West,8.1,-,N/A,,Overcast,270,2013-12-19 03:51:00
8:36 PM,53.6,50.0,88,29.87,8.0,WNW,5.8,-,N/A,,Overcast,290,2013-12-19 04:36:00
8:51 PM,54.0,50.0,86,29.88,9.0,West,9.2,-,N/A,,Overcast,280,2013-12-19 04:51:00
9:00 PM,53.6,50.0,88,29.88,9.0,WNW,8.1,-,N/A,,Overcast,290,2013-12-19 05:00:00
9:25 PM,53.6,50.0,88,29.87,9.0,WNW,8.1,-,N/A,,Overcast,290,2013-12-19 05:25:00
9:51 PM,54.0,50.0,86,29.87,9.0,WNW,4.6,-,N/A,,Overcast,300,2013-12-19 05:51:00
10:51 PM,54.0,50.0,86,29.86,9.0,NW,3.5,-,N/A,,Overcast,310,2013-12-19 06:51:00
11:51 PM,54.0,50.0,86,29.85,8.0,WNW,8.1,-,N/A,,Overcast,300,2013-12-19 07:51:00